Track COSMOS 2507 now! 10-day predictions COSMOS 2507 is classified as:
1 40920U 15050A 23269.86477897 .00000033 00000-0 16447-3 0 9995 2 40920 82.4962 338.6797 0008922 5.1723 354.9447 12.42875501363339